EW1931 Weather Reports


Display with metric or nautical units.
time (UTC)temp
F
wind
direction
speed
MPH
gust
MPH
rain 1hr
in
rain 24hr
in
rain mn
in
humidity
%
barometer
mb
20201029094518 32 191 0.0 2.0 0.00 0.00 0.00 92 1010.1
20201029093142 32 191 2.0 3.0 0.00 0.00 0.00 92 1010.1
20201029091553 33 190 3.0 5.0 0.00 0.00 0.00 91 1010.3
20201029090103 33 190 5.0 7.0 0.00 0.00 0.00 92 1010.4
20201029084616 33 187 5.0 7.0 0.00 0.00 0.00 92 1010.3
20201029083043 33 192 6.0 10.0 0.00 0.00 0.00 92 1010.4
20201029081528 33 194 5.0 7.0 0.00 0.00 0.00 92 1010.6
20201029080117 34 194 5.0 7.0 0.00 0.00 0.00 92 1010.7
20201029074640 34 201 7.0 10.0 0.00 0.00 0.00 92 1010.8
20201029073120 34 197 7.0 8.0 0.00 0.00 0.00 92 1010.8
20201029071607 33 205 6.0 7.0 0.00 0.00 0.00 92 1011.0
20201029070024 33 200 6.0 8.0 0.00 0.00 0.00 92 1010.9
20201029064522 33 198 6.0 7.0 0.00 0.00 0.00 91 1011.1
20201029061618 34 194 6.0 9.0 0.00 0.00 0.00 90 1011.5
20201029060102 35 201 7.0 9.0 0.00 0.00 0.00 90 1011.7
20201029054604 35 199 7.0 8.0 0.00 0.00 0.00 90 1011.7
20201029053121 35 213 6.0 11.0 0.00 0.00 0.00 90 1012.1
20201029051525 34 200 9.0 11.0 0.00 0.00 0.00 90 1012.0
20201029050024 35 198 8.0 11.0 0.00 0.00 0.00 90 1011.9
20201029044733 35 192 9.0 12.0 0.00 0.00 0.00 90 1012.1
20201029043155 35 199 8.0 9.0 0.00 0.00 0.00 90 1012.2
20201029041540 35 192 6.0 8.0 0.00 0.00 0.00 89 1012.4
20201029040058 35 186 4.0 6.0 0.00 0.00 0.00 89 1012.4
20201029034521 35 180 5.0 8.0 0.00 0.00 0.00 89 1012.5
20201029033028 35 171 6.0 8.0 0.00 0.00 0.00 90 1012.5
20201029031526 35 176 6.0 8.0 0.00 0.00 0.00 91 1012.8
20201029030024 34 153 4.0 5.0 0.00 0.00 0.00 91 1013.0
20201029024533 34 156 3.0 6.0 0.00 0.00 0.00 91 1013.2
20201029023041 33 164 2.0 3.0 0.00 0.00 0.00 90 1013.4
20201029021530 34 103 0.0 3.0 0.00 0.00 0.00 90 1013.7
20201029020029 34 103 3.0 5.0 0.00 0.00 0.00 89 1013.5
20201029014511 35 103 3.0 5.0 0.00 0.00 0.00 89 1013.6
20201029013022 35 103 1.0 3.0 0.00 0.00 0.00 89 1013.7
20201029011630 35 103 1.0 3.0 0.00 0.00 0.00 88 1013.9
20201029010121 35 103 3.0 5.0 0.00 0.00 0.00 88 1013.8
20201029004608 35 103 2.0 5.0 0.00 0.00 0.00 87 1013.9
20201029003100 36 104 2.0 5.0 0.00 0.00 0.00 87 1014.0
20201029001602 36 103 2.0 5.0 0.00 0.00 0.00 86 1014.1
20201029000057 36 103 3.0 5.0 0.00 0.00 0.00 86 1014.3
20201028234619 37 100 4.0 6.0 0.00 0.00 0.00 85 1014.3
20201028233305 37 108 4.0 5.0 0.00 0.00 0.00 84 1014.4
20201028231557 38 107 3.0 5.0 0.00 0.00 0.00 82 1014.5
20201028230059 39 103 2.0 5.0 0.00 0.00 0.00 81 1014.7
20201028224520 39 103 3.0 6.0 0.00 0.00 0.00 78 1014.6
20201028223041 40 105 2.0 5.0 0.00 0.00 0.00 76 1014.6
20201028221751 40 92 3.0 6.0 0.00 0.00 0.00 77 1014.8
20201028220301 40 77 4.0 8.0 0.00 0.00 0.00 77 1014.9
20201028214646 40 51 7.0 9.0 0.00 0.00 0.00 78 1014.9
20201028213058 40 62 5.0 7.0 0.00 0.00 0.00 81 1014.9
20201028211550 39 57 5.0 6.0 0.00 0.00 0.00 81 1015.1
20201028210127 39 48 4.0 7.0 0.00 0.00 0.00 81 1015.2
20201028204713 39 43 5.0 7.0 0.00 0.00 0.00 80 1015.2
20201028203106 39 63 4.0 6.0 0.00 0.00 0.00 80 1015.2
20201028201547 39 56 5.0 7.0 0.00 0.00 0.00 80 1015.1
20201028200146 39 83 1.0 5.0 0.00 0.00 0.00 79 1015.1
20201028194533 39 84 2.0 3.0 0.00 0.00 0.00 78 1015.3
20201028193031 39 80 2.0 4.0 0.00 0.00 0.00 79 1015.6
20201028191651 39 80 2.0 4.0 0.00 0.00 0.00 79 1015.7
20201028190308 39 78 3.0 5.0 0.00 0.00 0.00 78 1015.9
20201028184816 39 79 1.0 3.0 0.00 0.01 0.00 78 1016.0
20201028183204 38 79 1.0 2.0 0.00 0.01 0.00 79 1016.0
20201028181704 38 79 1.0 3.0 0.00 0.01 0.00 81 1016.0
20201028180104 37 79 1.0 3.0 0.00 0.01 0.00 82 1016.0
20201028174519 37 79 1.0 3.0 0.00 0.01 0.00 83 1015.9
20201028173024 37 79 1.0 4.0 0.00 0.01 0.00 83 1015.8
20201028171614 37 76 2.0 4.0 0.00 0.01 0.00 83 1016.0
20201028170138 37 76 1.0 5.0 0.00 0.01 0.00 82 1015.8
20201028164614 37 64 2.0 5.0 0.00 0.01 0.00 82 1015.9
20201028163110 37 61 2.0 5.0 0.00 0.01 0.00 82 1015.7
20201028161540 37 30 4.0 6.0 0.00 0.01 0.00 82 1015.8
20201028160038 37 59 4.0 7.0 0.00 0.01 0.00 82 1015.6
20201028154626 37 70 2.0 4.0 0.00 0.01 0.00 82 1015.6
20201028153136 37 71 2.0 4.0 0.00 0.01 0.00 82 1015.2
20201028151556 36 69 0.0 2.0 0.00 0.01 0.00 82 1015.0
20201028150051 36 69 2.0 3.0 0.00 0.01 0.00 82 1014.8
20201028144616 36 69 2.0 3.0 0.00 0.02 0.00 82 1014.8
20201028143047 37 74 2.0 4.0 0.00 0.02 0.00 81 1014.7
20201028141555 37 33 5.0 8.0 0.00 0.02 0.00 82 1014.6
20201028140112 37 355 3.0 5.0 0.00 0.02 0.00 81 1014.5
20201028134603 37 16 2.0 6.0 0.00 0.02 0.00 80 1014.5
20201028133055 37 355 6.0 9.0 0.00 0.02 0.00 81 1014.5
20201028131521 35 267 1.0 3.0 0.00 0.02 0.00 84 1014.3
20201028130021 35 299 2.0 5.0 0.00 0.02 0.00 84 1014.1
20201028124633 36 244 2.0 7.0 0.00 0.02 0.00 82 1013.9
20201028123151 35 312 5.0 8.0 0.00 0.02 0.00 84 1013.9
20201028121551 36 329 2.0 5.0 0.00 0.02 0.00 83 1013.7
20201028120055 36 336 3.0 6.0 0.00 0.02 0.00 83 1013.5
20201028114520 35 5 1.0 4.0 0.00 0.02 0.00 83 1013.3
20201028113024 35 342 4.0 7.0 0.00 0.02 0.00 82 1013.1
20201028111719 35 331 4.0 8.0 0.00 0.02 0.00 82 1012.9
20201028110207 35 328 7.0 10.0 0.00 0.02 0.00 83 1012.9
20201028104544 35 327 6.0 8.0 0.00 0.02 0.00 82 1012.8
20201028103051 36 323 4.0 7.0 0.00 0.02 0.00 81 1012.8
20201028101548 37 312 6.0 7.0 0.00 0.02 0.00 80 1012.9
20201028100049 37 316 7.0 9.0 0.00 0.02 0.00 80 1013.0